| time (UTC) | temp F | wind direction | speed MPH | gust MPH | rain 1hr in | rain 24hr in | rain mn in | humidity % | barometer mb |
| 20260902202020 | 67 | 358 | 0.0 | 2.0 | 0.00 | 0.00 | 0.00 | 77 | 1022.2 |
| 20260902201018 | 67 | 321 | 0.0 | 2.0 | 0.00 | 0.00 | 0.00 | 77 | 1022.1 |
| 20260902200017 | 67 | 293 | 0.0 | 1.0 | 0.00 | 0.00 | 0.00 | 76 | 1022.4 |
| 20260902195018 | 68 | 5 | 0.0 | 2.0 | 0.00 | 0.00 | 0.00 | 76 | 1022.6 |
| 20260902194018 | 68 | 335 | 0.0 | 2.0 | 0.00 | 0.00 | 0.00 | 75 | 1022.6 |
| 20260902193039 | 68 | 352 | 0.0 | 3.0 | 0.00 | 0.00 | 0.00 | 75 | 1022.6 |
| 20260902192039 | 68 | 337 | 0.0 | 2.0 | 0.00 | 0.00 | 0.00 | 75 | 1022.6 |
| 20260902191019 | 68 | 4 | 0.0 | 3.0 | 0.00 | 0.00 | 0.00 | 75 | 1022.5 |
| 20260902190019 | 68 | 359 | 0.0 | 3.0 | 0.00 | 0.00 | 0.00 | 76 | 1022.4 |
| 20260902185019 | 67 | 1 | 0.0 | 2.0 | 0.00 | 0.00 | 0.00 | 77 | 1022.4 |
| 20260902184019 | 67 | 357 | 0.0 | 2.0 | 0.00 | 0.00 | 0.00 | 77 | 1022.6 |
| 20260902183019 | 66 | 356 | 0.0 | 2.0 | 0.00 | 0.00 | 0.00 | 78 | 1022.7 |
| 20260902182016 | 66 | 6 | 0.0 | 3.0 | 0.00 | 0.00 | 0.00 | 78 | 1022.7 |
| 20260902181017 | 66 | 2 | 1.0 | 3.0 | 0.00 | 0.00 | 0.00 | 78 | 1022.8 |
| 20260902180020 | 66 | 7 | 1.0 | 3.0 | 0.00 | 0.00 | 0.00 | 78 | 1023.0 |
| 20260902175020 | 66 | 10 | 1.0 | 2.0 | 0.00 | 0.00 | 0.00 | 77 | 1022.8 |
| 20260902174018 | 67 | 8 | 1.0 | 3.0 | 0.00 | 0.00 | 0.00 | 76 | 1022.7 |
| 20260902173017 | 67 | 7 | 0.0 | 2.0 | 0.00 | 0.00 | 0.00 | 76 | 1022.8 |
| 20260902172018 | 67 | 5 | 0.0 | 2.0 | 0.00 | 0.00 | 0.00 | 77 | 1022.9 |
| 20260902171018 | 67 | 354 | 0.0 | 3.0 | 0.00 | 0.00 | 0.00 | 77 | 1022.8 |
| 20260902170018 | 67 | 4 | 0.0 | 3.0 | 0.00 | 0.00 | 0.00 | 77 | 1022.6 |
| 20260902165021 | 67 | 7 | 0.0 | 4.0 | 0.00 | 0.00 | 0.00 | 77 | 1022.8 |
| 20260902164018 | 67 | 353 | 0.0 | 3.0 | 0.00 | 0.00 | 0.00 | 78 | 1023.0 |
| 20260902163038 | 67 | 2 | 0.0 | 3.0 | 0.00 | 0.00 | 0.00 | 77 | 1023.1 |
| 20260902162039 | 67 | 305 | 0.0 | 2.0 | 0.00 | 0.00 | 0.00 | 77 | 1023.2 |
| 20260902161019 | 67 | 2 | 0.0 | 3.0 | 0.00 | 0.00 | 0.00 | 77 | 1023.4 |
| 20260902160019 | 67 | 9 | 0.0 | 3.0 | 0.00 | 0.00 | 0.00 | 76 | 1023.6 |
| 20260902155019 | 67 | 11 | 1.0 | 3.0 | 0.00 | 0.00 | 0.00 | 76 | 1023.6 |
| 20260902154017 | 67 | 355 | 0.0 | 3.0 | 0.00 | 0.00 | 0.00 | 75 | 1023.7 |
| 20260902153020 | 67 | 357 | 0.0 | 3.0 | 0.00 | 0.00 | 0.00 | 77 | 1023.6 |
| 20260902152019 | 67 | 5 | 1.0 | 3.0 | 0.00 | 0.00 | 0.00 | 77 | 1023.5 |
| 20260902151020 | 67 | 9 | 1.0 | 3.0 | 0.00 | 0.00 | 0.00 | 77 | 1023.4 |
| 20260902150040 | 67 | 5 | 0.0 | 3.0 | 0.00 | 0.00 | 0.00 | 78 | 1023.2 |
| 20260902145020 | 67 | 330 | 1.0 | 4.0 | 0.00 | 0.00 | 0.00 | 79 | 1022.9 |
| 20260902144017 | 66 | 341 | 1.0 | 3.0 | 0.00 | 0.00 | 0.00 | 81 | 1022.8 |
| 20260902143017 | 66 | 5 | 0.0 | 3.0 | 0.00 | 0.00 | 0.00 | 82 | 1022.8 |
| 20260902142018 | 65 | 18 | 0.0 | 2.0 | 0.00 | 0.00 | 0.00 | 83 | 1022.7 |
| 20260902141018 | 65 | 1 | 1.0 | 4.0 | 0.00 | 0.00 | 0.00 | 85 | 1022.6 |
| 20260902140018 | 64 | 7 | 1.0 | 3.0 | 0.00 | 0.00 | 0.00 | 88 | 1022.4 |
| 20260902135038 | 64 | 22 | 0.0 | 3.0 | 0.00 | 0.00 | 0.00 | 92 | 1022.4 |
| 20260902134038 | 63 | 17 | 1.0 | 3.0 | 0.00 | 0.00 | 0.00 | 93 | 1022.5 |
| 20260902133018 | 63 | 354 | 0.0 | 2.0 | 0.00 | 0.00 | 0.00 | 94 | 1022.3 |
| 20260902132039 | 63 | 341 | 0.0 | 3.0 | 0.00 | 0.00 | 0.00 | 94 | 1022.4 |
| 20260902131019 | 63 | 353 | 0.0 | 1.0 | 0.00 | 0.00 | 0.00 | 95 | 1022.4 |
| 20260902130019 | 62 | 23 | 0.0 | 2.0 | 0.00 | 0.00 | 0.00 | 95 | 1022.4 |
| 20260902125019 | 62 | 21 | 0.0 | 2.0 | 0.00 | 0.00 | 0.00 | 95 | 1022.3 |
| 20260902124039 | 62 | 20 | 0.0 | 2.0 | 0.00 | 0.00 | 0.00 | 95 | 1022.3 |
| 20260902123043 | 62 | 20 | 0.0 | 1.0 | 0.00 | 0.00 | 0.00 | 95 | 1022.2 |
| 20260902122019 | 62 | 36 | 0.0 | 2.0 | 0.00 | 0.00 | 0.00 | 95 | 1022.3 |
| 20260902121017 | 62 | 16 | 1.0 | 2.0 | 0.00 | 0.00 | 0.00 | 95 | 1022.4 |
| 20260902120016 | 62 | 14 | 0.0 | 2.0 | 0.00 | 0.00 | 0.00 | 95 | 1022.3 |
| 20260902115057 | 62 | 21 | 0.0 | 2.0 | 0.00 | 0.00 | 0.00 | 95 | 1022.2 |
| 20260902114017 | 61 | 18 | 0.0 | 2.0 | 0.00 | 0.00 | 0.00 | 95 | 1022.2 |
| 20260902113020 | 61 | 8 | 0.0 | 2.0 | 0.00 | 0.00 | 0.00 | 95 | 1022.2 |
| 20260902112021 | 61 | 6 | 0.0 | 2.0 | 0.00 | 0.00 | 0.00 | 95 | 1022.1 |
| 20260902111017 | 61 | 18 | 0.0 | 2.0 | 0.00 | 0.00 | 0.00 | 95 | 1021.9 |
| 20260902110018 | 61 | 344 | 0.0 | 2.0 | 0.00 | 0.00 | 0.00 | 95 | 1021.7 |
| 20260902105018 | 61 | 6 | 0.0 | 2.0 | 0.00 | 0.00 | 0.00 | 95 | 1021.7 |
| 20260902104018 | 61 | 321 | 0.0 | 1.0 | 0.00 | 0.00 | 0.00 | 95 | 1021.7 |
| 20260902103018 | 61 | 343 | 0.0 | 2.0 | 0.00 | 0.00 | 0.00 | 95 | 1021.8 |
| 20260902102019 | 61 | 21 | 0.0 | 2.0 | 0.00 | 0.00 | 0.00 | 95 | 1021.8 |
| 20260902101039 | 61 | 344 | 0.0 | 1.0 | 0.00 | 0.00 | 0.00 | 95 | 1021.7 |
| 20260902100039 | 61 | 346 | 0.0 | 2.0 | 0.00 | 0.00 | 0.00 | 95 | 1021.7 |
| 20260902095019 | 61 | 351 | 0.0 | 2.0 | 0.00 | 0.00 | 0.00 | 95 | 1021.7 |
| 20260902094040 | 61 | 23 | 0.0 | 3.0 | 0.00 | 0.00 | 0.00 | 95 | 1021.5 |
| 20260902093019 | 61 | 18 | 0.0 | 1.0 | 0.00 | 0.00 | 0.00 | 95 | 1021.3 |
| 20260902092017 | 61 | 18 | 0.0 | 1.0 | 0.00 | 0.00 | 0.00 | 95 | 1021.3 |
| 20260902091019 | 61 | 27 | 0.0 | 1.0 | 0.00 | 0.00 | 0.00 | 95 | 1021.3 |
| 20260902090040 | 61 | 335 | 0.0 | 1.0 | 0.00 | 0.00 | 0.00 | 95 | 1021.3 |
| 20260902085020 | 61 | 16 | 0.0 | 1.0 | 0.00 | 0.00 | 0.00 | 95 | 1021.3 |
| 20260902084037 | 61 | 8 | 0.0 | 1.0 | 0.00 | 0.00 | 0.00 | 95 | 1021.2 |
| 20260902083017 | 61 | 6 | 0.0 | 1.0 | 0.00 | 0.00 | 0.00 | 95 | 1021.3 |
| 20260902082017 | 61 | 346 | 0.0 | 1.0 | 0.00 | 0.00 | 0.00 | 95 | 1021.3 |
| 20260902081038 | 61 | 7 | 0.0 | 2.0 | 0.00 | 0.00 | 0.00 | 95 | 1021.4 |
| 20260902080018 | 61 | 358 | 1.0 | 2.0 | 0.00 | 0.00 | 0.00 | 95 | 1021.3 |
| 20260902075019 | 61 | 344 | 0.0 | 2.0 | 0.00 | 0.00 | 0.00 | 95 | 1021.1 |
| 20260902074018 | 61 | 7 | 0.0 | 1.0 | 0.00 | 0.00 | 0.00 | 95 | 1021.0 |
| 20260902073018 | 61 | 0.0 | 0.0 | 0.00 | 0.00 | 0.00 | 95 | 1020.8 | |
| 20260902072018 | 61 | 290 | 1.0 | 2.0 | 0.00 | 0.00 | 0.00 | 95 | 1020.9 |
| 20260902071019 | 61 | 336 | 1.0 | 2.0 | 0.00 | 0.00 | 0.00 | 95 | 1020.9 |
| 20260902070019 | 61 | 354 | 1.0 | 2.0 | 0.00 | 0.00 | 0.00 | 95 | 1020.9 |
| 20260902065039 | 61 | 337 | 1.0 | 2.0 | 0.00 | 0.00 | 0.00 | 95 | 1020.9 |
| 20260902064019 | 61 | 358 | 0.0 | 2.0 | 0.00 | 0.00 | 0.00 | 95 | 1020.8 |
| 20260902063019 | 61 | 357 | 1.0 | 2.0 | 0.00 | 0.00 | 0.00 | 95 | 1020.8 |
| 20260902062019 | 61 | 320 | 0.0 | 1.0 | 0.00 | 0.00 | 0.00 | 95 | 1020.9 |
| 20260902061019 | 61 | 315 | 0.0 | 1.0 | 0.00 | 0.00 | 0.00 | 95 | 1021.1 |
| 20260902060017 | 61 | 338 | 0.0 | 2.0 | 0.00 | 0.00 | 0.00 | 94 | 1021.0 |
| 20260902055017 | 61 | 324 | 0.0 | 1.0 | 0.00 | 0.00 | 0.00 | 94 | 1020.9 |
| 20260902054021 | 61 | 350 | 1.0 | 2.0 | 0.00 | 0.00 | 0.00 | 94 | 1020.8 |
| 20260902053017 | 61 | 8 | 0.0 | 1.0 | 0.00 | 0.00 | 0.00 | 94 | 1020.6 |
| 20260902052018 | 61 | 345 | 0.0 | 1.0 | 0.00 | 0.00 | 0.00 | 94 | 1020.5 |
| 20260902051017 | 61 | 3 | 0.0 | 1.0 | 0.00 | 0.00 | 0.00 | 94 | 1020.4 |
| 20260902050018 | 61 | 356 | 0.0 | 1.0 | 0.00 | 0.00 | 0.00 | 94 | 1020.2 |
| 20260902045037 | 61 | 7 | 0.0 | 1.0 | 0.00 | 0.00 | 0.00 | 94 | 1020.1 |
| 20260902044018 | 61 | 346 | 0.0 | 1.0 | 0.00 | 0.00 | 0.00 | 94 | 1020.1 |
| 20260902043018 | 61 | 351 | 0.0 | 1.0 | 0.00 | 0.00 | 0.00 | 94 | 1020.0 |
| 20260902042038 | 61 | 350 | 0.0 | 2.0 | 0.00 | 0.00 | 0.00 | 94 | 1019.9 |
| 20260902041018 | 61 | 359 | 0.0 | 2.0 | 0.00 | 0.00 | 0.00 | 94 | 1019.9 |
| 20260902040019 | 61 | 351 | 0.0 | 1.0 | 0.00 | 0.00 | 0.00 | 94 | 1019.9 |
| 20260902035039 | 61 | 356 | 0.0 | 2.0 | 0.00 | 0.00 | 0.00 | 94 | 1019.9 |
| 20260902034019 | 61 | 315 | 1.0 | 3.0 | 0.00 | 0.00 | 0.00 | 94 | 1019.7 |
| 20260902033037 | 61 | 326 | 1.0 | 3.0 | 0.00 | 0.00 | 0.00 | 94 | 1019.6 |
| 20260902032019 | 61 | 351 | 0.0 | 1.0 | 0.00 | 0.00 | 0.00 | 93 | 1019.3 |
| 20260902031019 | 61 | 350 | 0.0 | 1.0 | 0.00 | 0.00 | 0.00 | 93 | 1019.3 |
| 20260902030019 | 61 | 327 | 0.0 | 2.0 | 0.00 | 0.00 | 0.00 | 93 | 1019.3 |
| 20260902025020 | 61 | 335 | 0.0 | 0.0 | 0.00 | 0.00 | 0.00 | 93 | 1019.4 |
| 20260902024017 | 61 | 354 | 0.0 | 1.0 | 0.00 | 0.00 | 0.00 | 93 | 1019.5 |
| 20260902023017 | 61 | 356 | 0.0 | 2.0 | 0.00 | 0.00 | 0.00 | 93 | 1019.4 |
| 20260902022017 | 61 | 345 | 0.0 | 2.0 | 0.00 | 0.00 | 0.00 | 93 | 1019.4 |
| 20260902021020 | 62 | 352 | 0.0 | 1.0 | 0.00 | 0.00 | 0.00 | 93 | 1019.5 |
| 20260902020021 | 62 | 350 | 0.0 | 2.0 | 0.00 | 0.00 | 0.00 | 93 | 1019.7 |
| 20260902015018 | 62 | 351 | 0.0 | 1.0 | 0.00 | 0.00 | 0.00 | 93 | 1019.6 |
| 20260902014018 | 62 | 346 | 0.0 | 2.0 | 0.00 | 0.00 | 0.00 | 92 | 1019.6 |
| 20260902013038 | 62 | 340 | 1.0 | 2.0 | 0.00 | 0.00 | 0.00 | 92 | 1019.6 |
| 20260902012018 | 62 | 354 | 0.0 | 1.0 | 0.00 | 0.00 | 0.00 | 92 | 1019.5 |
| 20260902011021 | 62 | 350 | 0.0 | 1.0 | 0.00 | 0.00 | 0.00 | 92 | 1019.3 |
| 20260902010019 | 62 | 354 | 0.0 | 1.0 | 0.00 | 0.00 | 0.00 | 92 | 1019.4 |
| 20260902005019 | 63 | 11 | 0.0 | 2.0 | 0.00 | 0.00 | 0.00 | 91 | 1019.4 |
| 20260902004019 | 63 | 8 | 0.0 | 1.0 | 0.00 | 0.00 | 0.00 | 91 | 1019.2 |
| 20260902003019 | 63 | 37 | 0.0 | 1.0 | 0.00 | 0.00 | 0.00 | 91 | 1019.0 |
| 20260902002019 | 63 | 355 | 0.0 | 1.0 | 0.00 | 0.00 | 0.00 | 91 | 1018.9 |
| 20260902001020 | 62 | 67 | 0.0 | 0.0 | 0.00 | 0.00 | 0.00 | 90 | 1018.9 |
| 20260902000017 | 62 | 43 | 0.0 | 1.0 | 0.00 | 0.00 | 0.00 | 90 | 1018.9 |
| 20260901235017 | 63 | 342 | 0.0 | 0.0 | 0.00 | 0.00 | 0.00 | 89 | 1019.0 |
| 20260901234100 | 63 | 7 | 0.0 | 0.0 | 0.00 | 0.00 | 0.00 | 89 | 1018.9 |
| 20260901233020 | 63 | 319 | 0.0 | 0.0 | 0.00 | 0.00 | 0.00 | 88 | 1018.9 |
| 20260901232018 | 63 | 284 | 0.0 | 0.0 | 0.00 | 0.00 | 0.00 | 88 | 1018.9 |
| 20260901231018 | 64 | 29 | 0.0 | 1.0 | 0.00 | 0.00 | 0.00 | 88 | 1018.8 |
| 20260901230018 | 64 | 254 | 0.0 | 1.0 | 0.00 | 0.00 | 0.00 | 87 | 1018.7 |
| 20260901225018 | 65 | 11 | 0.0 | 1.0 | 0.00 | 0.00 | 0.00 | 87 | 1018.6 |
| 20260901224018 | 65 | 335 | 0.0 | 1.0 | 0.00 | 0.00 | 0.00 | 87 | 1018.5 |
| 20260901223018 | 65 | 3 | 0.0 | 1.0 | 0.00 | 0.00 | 0.00 | 87 | 1018.5 |
| 20260901222039 | 65 | 278 | 0.0 | 2.0 | 0.00 | 0.00 | 0.00 | 87 | 1018.5 |
| 20260901221039 | 65 | 231 | 0.0 | 2.0 | 0.00 | 0.00 | 0.00 | 86 | 1018.6 |
| 20260901220019 | 66 | 261 | 0.0 | 2.0 | 0.00 | 0.00 | 0.00 | 86 | 1018.6 |
| 20260901215039 | 66 | 219 | 0.0 | 2.0 | 0.00 | 0.00 | 0.00 | 85 | 1018.6 |
| 20260901214019 | 66 | 217 | 1.0 | 4.0 | 0.00 | 0.00 | 0.00 | 84 | 1018.5 |
| 20260901213016 | 67 | 237 | 0.0 | 2.0 | 0.00 | 0.00 | 0.00 | 83 | 1018.4 |
| 20260901212019 | 67 | 267 | 0.0 | 2.0 | 0.00 | 0.00 | 0.00 | 83 | 1018.4 |
| 20260901211019 | 68 | 215 | 0.0 | 3.0 | 0.00 | 0.00 | 0.00 | 82 | 1018.3 |
| 20260901210020 | 68 | 243 | 0.0 | 2.0 | 0.00 | 0.00 | 0.00 | 81 | 1018.3 |
| 20260901205019 | 69 | 198 | 0.0 | 2.0 | 0.00 | 0.00 | 0.00 | 80 | 1018.2 |
| 20260901204017 | 69 | 214 | 0.0 | 3.0 | 0.00 | 0.00 | 0.00 | 80 | 1018.1 |
| 20260901203017 | 68 | 200 | 0.0 | 2.0 | 0.00 | 0.00 | 0.00 | 82 | 1018.0 |